Location: Black Forest
(43.4794°N, 75.0081°W)
Time: 01:05:49
(UTC-04:00)

ISS - Visible Passes

Search period start: 24 May 2015 00:00
Search period end: 03 June 2015 00:00
Orbit: 399 x 404 km, 51.6° (Epoch: 23 May)

Date Brightness Start Highest point End Pass type
(mag) Time Alt. Az. Time Alt. Az. Time Alt. Az.
24 May -1.5 01:56:38 29° NE 01:56:38 29° NE 01:58:25 10° NE visible
24 May -1.0 03:29:21 10° WNW 03:32:00 22° N 03:34:39 10° NE visible
25 May -0.3 01:05:01 11° ENE 01:05:01 11° ENE 01:05:11 10° ENE visible
25 May -1.4 02:37:35 23° NW 02:38:35 27° NNW 02:41:27 10° NE visible
25 May -0.7 04:13:17 10° NW 04:15:44 19° N 04:18:11 10° NE visible
26 May -1.6 01:45:54 33° N 01:45:54 33° N 01:48:16 10° NE visible
26 May -0.7 03:19:47 10° NW 03:22:14 19° N 03:24:42 10° NE visible
27 May -0.8 00:54:07 18° NE 00:54:07 18° NE 00:55:05 10° NE visible
27 May -0.8 02:26:40 13° NW 02:28:44 21° N 02:31:20 10° NE visible
27 May -0.7 04:03:19 10° NW 04:05:55 22° N 04:08:33 10° ENE visible
28 May -1.2 01:34:44 24° NNW 01:35:15 26° NNW 01:38:03 10° NE visible
28 May -0.5 03:09:57 10° NW 03:12:24 19° N 03:14:53 10° NE visible
28 May -1.8 04:46:19 10° NW 04:49:25 40° NNE 04:52:32 10° E visible
29 May -1.4 00:42:33 30° N 00:42:33 30° N 00:44:49 10° NE visible
29 May -0.5 02:16:25 10° NW 02:18:51 19° N 02:21:18 10° NE visible
29 May -1.1 03:53:05 10° NW 03:55:59 28° NNE 03:58:53 10° E visible
29 May -1.6 23:49:48 28° NE 23:49:48 28° NE 23:51:34 10° NE visible
30 May -0.6 01:22:45 10° WNW 01:25:17 20° N 01:27:50 10° NE visible
30 May -0.7 02:59:48 10° NW 03:02:27 22° NNE 03:05:08 10° ENE visible
30 May -3.1 04:36:00 10° NW 04:39:16 75° NNE 04:42:32 10° ESE visible
30 May -1.3 21:18:02 10° SSE 21:19:01 11° SE 21:20:08 10° ESE visible
30 May -3.5 22:51:45 10° SW 22:55:00 87° SE 22:58:16 10° ENE visible
31 May -0.9 00:28:59 10° WNW 00:31:43 24° NNW 00:34:28 10° NE visible
31 May -0.5 02:06:25 10° NW 02:08:53 20° N 02:11:23 10° NE visible
31 May -2.1 03:42:44 10° NW 03:45:52 44° NNE 03:49:01 10° E visible
31 May -3.1 21:58:34 10° SW 22:01:41 45° SE 22:04:49 10° ENE visible
31 May -1.5 23:35:13 10° W 23:38:11 32° NNW 23:41:10 10° NE visible
01 Jun -0.4 01:12:51 10° NW 01:15:17 19° N 01:17:42 10° NE visible
01 Jun -1.3 02:49:26 10° NW 02:52:22 30° NNE 02:55:20 10° E visible
01 Jun -3.2 04:25:44 10° WNW 04:28:55 50° SW 04:32:05 10° SE visible
01 Jun -2.2 21:05:46 10° SSW 21:08:26 24° SE 21:11:09 10° E visible
01 Jun -2.3 22:41:32 10° WSW 22:44:41 47° NNW 22:47:52 10° NE visible
02 Jun -0.5 00:19:08 10° WNW 00:21:39 20° N 00:24:09 10° NE visible
02 Jun -0.8 01:56:06 10° NW 01:58:49 23° NNE 02:01:32 10° ENE visible
02 Jun -3.4 03:32:18 10° WNW 03:35:34 86° NE 03:38:50 10° ESE visible
02 Jun -3.3 21:48:00 10° WSW 21:51:15 82° NNW 21:54:30 10° ENE visible
02 Jun -0.8 23:25:19 10° WNW 23:28:01 23° NNW 23:30:42 10° NE visible
